Simultaneous Nadir Overpasses (SNOs) Predictions

Prediction of SNOs between GOES-17 and AQUA Satellite Orbit:

Table of predicted SNOs for the next 14.0 days since TLE Epoch: 1/28/2022
Index Date Time (GOES-17) GOES-17 Lat,Lon AQUA Lat,Lon Distance(km) Time Diff (sec)
1 01/28/2022 22:52:46 0.04,-137.22 -0.42,-139.35 241.51 80
2 01/30/2022 22:43:13 0.03,-137.22 0.20,-136.38 95.45 80
3 01/31/2022 11:01:47 -0.03,-137.21 0.92,-141.52 491.44 80
4 02/01/2022 22:31:00 0.03,-137.21 0.83,-133.41 432.00 80
5 02/02/2022 10:52:15 -0.03,-137.20 0.23,-138.57 154.89 80
6 02/04/2022 10:37:22 -0.03,-137.19 -0.34,-135.59 181.84 80
7 02/04/2022 22:58:45 0.03,-137.19 -0.73,-140.78 407.69 80
8 02/06/2022 22:46:32 0.03,-137.18 -0.08,-137.81 71.44 80
9 02/08/2022 22:36:58 0.02,-137.16 0.51,-134.84 264.43 80
10 02/09/2022 10:58:13 -0.02,-137.15 0.61,-139.98 322.67 80
11 02/11/2022 10:43:19 0.01,-137.12 0.01,-137.01 13.01 80
